sat.trackr.live / text

‹ back to catalog

ONEWEB-0602

NORAD 54666 · 2022-166AA

PAYLOAD ACTIVE UNKNOWN

§ Identity

Operator
Country
UK
Launch date
2022-12-08
Launch site
AFETR
Launch vehicle
Mass (kg)
RCS (m²)

Purposes: comms

External: N2YO · Heavens-Above · Gunter

§ Orbital elements

Epoch: 2026-05-24T23:41:55.986720Z

Period
108.94 min
Inclination
87.9250°
Eccentricity
0.0001968
Mean motion
13.21824908 rev/d
Perigee alt
1,176.3 km
Apogee alt
1,179.2 km
Semi-major
7,555.9 km
B*
8.5936e-5
RAAN
248.6176°
Arg perigee
91.8944°
Mean anomaly
268.2415°
Rev number
16,848

§ Raw data

ONEWEB-06021 54666U 22166AA  26144.98745355  .00000049  00000+0  85936-4 0  99942 54666  87.9250 248.6176 0001968  91.8944 268.2415 13.21824908168486

JSON: /api/v1/satellites/54666 · /tle

For live sub-satellite position, see the globe view (requires WebGL).

§ Visibility from observer

Set your observer location to see the next 7 days of passes ≥ 10°. The values pass through the URL so the page stays shareable.

No JS? Fill the form by hand. The geolocation button needs JavaScript.